Tracking 27428 objects as of 31-May-2023
HD Live streaming from Space Station
objects crossing your sky now

THOR ABLESTAR DEB

Track THOR ABLESTAR DEB now!
10-day predictions


NORAD ID: 48811
Int'l Code: 1961-015MP
Perigee: 894.5 km
Apogee: 1,057.2 km
Inclination: 67.1 °
Period: 104.5 minutes
Semi major axis: 7346 km
RCS: Unknown
Launch date: June 29, 1961
Source: United States (US)
Launch site: AIR FORCE EASTERN TEST RANGE (AFETR)

Note: This is SATELLITE DEBRIS
Your satellite tracking list
Your tracking list is empty




NASA's NSSDC Master Catalog

Two Line Element Set (TLE):
1 48811U 61015MP  23151.15858851  .00000268  00000-0  32069-3 0  9997
2 48811  67.0595 111.3275 0110711 244.7339 114.2230 13.78642628 63536
Source of the keplerian elements: AFSPC